{"data":{"norad_id":60302,"intl_designator":"2024-133B","name":"STARLINK-11128 [DTC]","alt_names":[],"object_type":"PAYLOAD","status":"ACTIVE","operator":null,"country":"US","launch_date":"2024-07-28","launch_site_code":"AFWTR","launch_vehicle":null,"mission":null,"orbit_class":"UNKNOWN","rcs_meters":null,"size_class":null,"mass_kg":null,"dimensions":null,"purposes":["comms"],"wikipedia_slug":null,"has_3d_model":false,"image_url":null,"decayed_at":null,"tle_current":{"epoch":"2026-09-21T07:01:43.281120Z","epoch_age_seconds":117082,"freshness":"FRESH","line1":"1 60302U 24133B   26264.29286205  .00000268  00000+0  70789-5 0  9999","line2":"2 60302  53.1588 262.1290 0001479  79.1454 280.9730 15.69709088124454","mean_motion":15.69709088,"eccentricity":0.0001479,"inclination_deg":53.1588,"raan_deg":262.129,"arg_perigee_deg":79.1454,"mean_anomaly_deg":280.973,"bstar":7.0789e-6,"rev_number":12445,"period_min":91.736743515624,"perigee_km":358.73282978127,"apogee_km":360.72589065063,"semimajor_km":6737.8663602159,"source":"CELESTRAK","updated_at":"2026-09-22T09:00:49.196458Z"}}}